Location: Northam
(31.6525°S, 116.6655°E)
Time: 04:46:37
(UTC+08:00)

Tiros 1 despin weight - All Passes

Search period start: 14 June 2021 00:00
Search period end: 24 June 2021 00:00
Orbit: 593 x 641 km, 48.2° (Epoch: 12 June)

Date Brightness Start Highest point End Pass type
(mag) Time Alt. Az. Time Alt. Az. Time Alt. Az.
14 Jun - 00:19:54 10° SSW 00:21:59 13° SSE 00:24:03 10° SE night (unlit)
14 Jun - 02:00:18 10° SW 02:04:37 37° SSE 02:08:50 10° E night (unlit)
14 Jun - 03:41:58 10° WSW 03:46:06 33° NW 03:50:09 10° NNE night (unlit)
14 Jun - 17:45:35 10° N 17:48:55 19° NE 17:52:17 10° E visible
14 Jun - 19:25:29 10° WNW 19:30:08 61° SW 19:34:50 10° SE visible
14 Jun - 21:09:27 10° WSW 21:12:27 16° SSW 21:15:27 10° SSE visible
14 Jun - 22:55:27 10° S 22:55:40 10° S 22:55:52 10° S night (unlit)
15 Jun - 00:35:40 10° SSW 00:38:49 18° SSE 00:41:57 10° ESE night (unlit)
15 Jun - 02:16:23 10° SW 02:21:02 71° SE 02:25:33 10° ENE night (unlit)
15 Jun - 03:59:29 10° W 04:02:07 15° NW 04:04:42 10° NNW night (unlit)
15 Jun - 18:00:34 10° NNW 18:04:58 42° NE 18:09:26 10° ESE visible
15 Jun - 19:42:20 10° W 19:46:36 33° SSW 19:50:53 10° SSE visible
15 Jun - 21:27:25 10° SW 21:29:19 12° SSW 21:31:15 10° SSE night (unlit)
15 Jun - 23:11:14 10° S 23:12:40 11° S 23:14:04 10° SSE night (unlit)
16 Jun - 00:51:32 10° SSW 00:55:31 27° SSE 00:59:26 10° E night (unlit)
16 Jun - 02:32:45 10° WSW 02:37:17 54° NW 02:41:42 10° NNE night (unlit)
16 Jun - 16:38:29 10° NNE 16:40:11 12° NE 16:41:53 10° ENE daylight
16 Jun - 18:16:29 10° NW 18:21:11 89° ENE 18:25:56 10° SE visible
16 Jun - 19:59:40 10° WSW 20:03:14 21° SSW 20:06:48 10° SSE visible
16 Jun - 21:45:33 10° SSW 21:46:18 10° S 21:47:03 10° S night (unlit)
16 Jun - 23:27:01 10° SSW 23:29:35 14° SSE 23:32:08 10° SE night (unlit)
17 Jun - 01:07:31 10° SW 01:12:03 47° SE 01:16:28 10° ENE night (unlit)
17 Jun - 02:49:38 10° WSW 02:53:22 24° NW 02:57:02 10° N night (unlit)
17 Jun - 16:52:15 10° N 16:56:09 26° NE 17:00:06 10° ESE daylight
17 Jun - 18:33:00 10° WNW 18:37:32 46° SW 18:42:07 10° SE visible
17 Jun - 20:17:25 10° SW 20:20:02 14° SSW 20:22:37 10° SSE visible
17 Jun - 22:02:32 10° S 22:03:18 10° S 22:04:05 10° SSE night (unlit)
17 Jun - 23:42:49 10° SSW 23:46:22 21° SSE 23:49:52 10° ESE night (unlit)
18 Jun - 01:23:43 10° SW 01:28:24 86° NW 01:32:58 10° NE night (unlit)
18 Jun - 03:08:20 10° WNW 03:09:21 11° NW 03:10:20 10° NW night (unlit)
18 Jun - 17:07:41 10° NW 17:12:16 57° NE 17:16:55 10° ESE daylight
18 Jun - 18:50:03 10° W 18:54:04 27° SSW 18:58:06 10° SSE visible
18 Jun - 20:35:28 10° SSW 20:36:57 11° S 20:38:25 10° S visible
18 Jun - 22:18:20 10° SSW 22:20:17 12° SSE 22:22:13 10° SE night (unlit)
18 Jun - 23:58:44 10° SSW 00:03:00 33° SSE 00:07:11 10° E night (unlit)
19 Jun - 01:40:15 10° WSW 01:44:35 39° NW 01:48:49 10° NNE night (unlit)
19 Jun - 15:44:27 10° NNE 15:47:24 17° NE 15:50:21 10° E daylight
19 Jun - 17:23:51 10° WNW 17:28:32 69° SW 17:33:16 10° SE daylight
19 Jun - 19:07:34 10° WSW 19:10:46 18° SSW 19:13:58 10° SSE visible
19 Jun - 20:53:25 10° S 20:53:56 10° S 20:54:28 10° S visible
19 Jun - 22:34:07 10° SSW 22:37:09 17° SSE 22:40:09 10° ESE night (unlit)
20 Jun - 00:14:47 10° SW 00:19:27 63° SE 00:24:00 10° ENE night (unlit)
20 Jun - 01:57:29 10° W 02:00:37 18° NW 02:03:42 10° N night (unlit)
20 Jun - 15:59:10 10° NNW 16:03:25 36° NE 16:07:44 10° ESE daylight
20 Jun - 17:40:36 10° W 17:44:57 36° SSW 17:49:21 10° SE visible
20 Jun - 19:25:27 10° SW 19:27:37 13° SSW 19:29:47 10° SSE visible
20 Jun - 21:09:39 10° S 21:10:56 11° S 21:12:14 10° SSE night (unlit)
20 Jun - 22:49:58 10° SSW 22:53:52 25° SSE 22:57:43 10° E night (unlit)
21 Jun - 00:31:05 10° SW 00:35:43 63° NW 00:40:15 10° NE night (unlit)
21 Jun - 16:14:55 10° NW 16:19:35 78° NE 16:24:19 10° SE daylight
21 Jun - 17:57:51 10° WSW 18:01:33 22° SSW 18:05:17 10° SSE visible
21 Jun - 19:43:32 10° SSW 19:44:34 11° S 19:45:37 10° S visible
21 Jun - 21:25:26 10° SSW 21:27:53 14° SSE 21:30:18 10° SE night (unlit)
21 Jun - 23:05:56 10° SW 23:10:26 42° SE 23:14:50 10° ENE night (unlit)
22 Jun - 00:47:49 10° WSW 00:51:51 29° NW 00:55:47 10° N night (unlit)
22 Jun - 14:51:00 10° N 14:54:37 23° NE 14:58:17 10° ESE daylight
22 Jun - 16:31:20 10° WNW 16:35:54 52° SW 16:40:33 10° SE daylight
22 Jun - 18:15:31 10° SW 18:18:19 15° SSW 18:21:07 10° SSE visible
22 Jun - 20:00:51 10° S 20:01:34 10° S 20:02:18 10° SSE visible
22 Jun - 21:41:16 10° SSW 21:44:41 19° SSE 21:48:05 10° ESE night (unlit)
22 Jun - 23:22:05 10° SW 23:26:49 83° SE 23:31:26 10° NE night (unlit)
23 Jun - 01:05:43 10° W 01:07:50 13° NW 01:09:55 10° NNW night (unlit)
23 Jun - 15:06:13 10° NNW 15:10:41 49° NE 15:15:15 10° ESE daylight
23 Jun - 16:48:17 10° W 16:52:24 29° SSW 16:56:33 10° SSE daylight
23 Jun - 18:33:31 10° SSW 18:35:13 12° S 18:36:55 10° S visible
23 Jun - 20:16:46 10° SSW 20:18:33 12° S 20:20:20 10° SSE visible
23 Jun - 21:57:09 10° SSW 22:01:21 30° SSE 22:05:29 10° E night (unlit)
23 Jun - 23:38:32 10° WSW 23:43:01 46° NW 23:47:25 10° NNE night (unlit)
